Temp
-9 -9 -9 -9 -8 -8 -8 -8 -8 -8 -8 -8 -8 -8 -8 -8 -8 -7 -7 -7 -7 -7 -7 -7 -7 -7 -7 -7 -7 -7 -7 -8 -8 -8 -8 -8 -9 -9 -10 -10 -10 -11 -11
-9 -9 -9 -9 -8 -8 -8 -8 -8 -8 -8 -8 -8 -8 -8 -8 -8 -8 -8 -8 -7 -8 -8 -7 -7 -8 -8 -8 -8 -8 -8 -8 -9 -9 -8 -8 -9 -10 -11 -11 -11 -12 -12
-9 -9 -9 -9 -9 -9 -8 -8 -8 -8 -8 -8 -8 -8 -8 -8 -8 -8 -8 -7 -7 -7 -7 -7 -7 -7 -7 -8 -8 -8 -8 -8 -9 -10 -10 -9 -9 -10 -11 -12 -12 -12 -13
-9 -9 -9 -9 -9 -9 -9 -9 -9 -9 -9 -9 -8 -8 -8 -8 -8 -8 -7 -8 -7 -8 -7 -7 -8 -8 -8 -8 -9 -9 -9 -10 -10 -10 -11 -11 -11 -10 -10 -12 -13 -13 -13
-9 -9 -9 -9 -9 -9 -9 -9 -9 -9 -8 -8 -8 -8 -8 -8 -8 -8 -8 -8 -8 -8 -8 -8 -9 -9 -9 -9 -10 -10 -10 -10 -10 -11 -11 -11 -11 -12 -11 -10 -12 -13 -14
-9 -9 -9 -10 -10 -9 -9 -9 -9 -9 -9 -8 -8 -8 -8 -8 -8 -8 -8 -9 -9 -9 -9 -9 -9 -9 -10 -10 -10 -10 -10 -11 -11 -11 -11 -12 -12 -12 -13 -13 -12 -13 -14
-9 -10 -10 -9 -9 -9 -9 -9 -9 -9 -9 -9 -9 -9 -9 -9 -9 -9 -9 -10 -10 -10 -10 -10 -10 -10 -10 -10 -11 -11 -11 -12 -12 -12 -12 -12 -13 -13 -13 -13 -13 -13 -13
-10 -10 -9 -9 -9 -9 -9 -9 -9 -9 -9 -9 -9 -9 -9 -9 -10 -10 -10 -10 -10 -10 -10 -10 -10 -10 -10 -10 -11 -11 -11 -11 -11 -12 -12 -12 -13 -13 -14 -14 -14 -13 -13
-9 -9 -9 -9 -9 -9 -9 -9 -10 -10 -10 -10 -10 -10 -10 -10 -10 -10 -10 -10 -10 -10 -10 -10 -10 -11 -11 -11 -11 -12 -12 -12 -12 -12 -12 -12 -13 -14 -14 -15 -15 -15 -14
-9 -9 -9 -10 -9 -10 -10 -10 -10 -10 -10 -10 -10 -10 -10 -10 -10 -10 -10 -10 -10 -10 -10 -11 -11 -11 -12 -12 -12 -13 -13 -13 -13 -14 -14 -14 -14 -15 -15 -15 -16 -16 -16
-10 -10 -10 -10 -10 -10 -10 -10 -10 -10 -10 -10 -10 -10 -10 -10 -10 -10 -10 -10 -10 -11 -11 -11 -11 -11 -12 -12 -13 -13 -14 -14 -15 -15 -16 -16 -16 -16 -16 -16 -17 -16 -17
-10 -10 -10 -11 -10 -10 -10 -10 -10 -10 -10 -10 -10 -10 -10 -10 -10 -10 -10 -10 -10 -11 -11 -11 -12 -12 -12 -13 -14 -14 -15 -15 -16 -17 -17 -17 -17 -17 -17 -17 -17 -17 -17
-10 -10 -10 -10 -11 -11 -10 -10 -10 -10 -10 -10 -10 -10 -10 -10 -10 -10 -11 -11 -11 -11 -12 -12 -13 -13 -14 -14 -15 -16 -17 -18 -18 -18 -18 -18 -18 -18 -18 -18 -18 -18 -18
-10 -10 -11 -11 -11 -11 -11 -11 -10 -10 -11 -11 -11 -11 -10 -10 -10 -10 -11 -11 -12 -12 -13 -14 -15 -16 -17 -18 -18 -19 -19 -19 -19 -19 -19 -19 -19 -19 -19 -20 -20 -20 -20
-11 -11 -11 -11 -11 -11 -11 -11 -11 -11 -11 -11 -11 -11 -11 -11 -11 -11 -12 -13 -13 -14 -14 -15 -17 -19 -20 -20 -21 -21 -21 -21 -21 -21 -21 -21 -21 -21 -21 -21 -21 -21 -21
-12 -12 -12 -12 -12 -12 -12 -12 -11 -11 -11 -11 -12 -12 -12 -12 -12 -13 -13 -14 -15 -16 -17 -18 -20 -21 -21 -22 -22 -22 -22 -22 -22 -22 -22 -22 -22 -22 -22 -22 -22 -22 -21
-11 -11 -11 -11 -11 -11 -11 -11 -11 -12 -12 -12 -12 -12 -12 -13 -13 -14 -15 -17 -18 -19 -20 -21 -21 -22 -22 -22 -22 -22 -22 -22 -22 -22 -22 -22 -22 -22 -22 -22 -22 -21 -21
-11 -11 -11 -11 -12 -12 -12 -12 -12 -12 -12 -12 -13 -13 -14 -15 -16 -18 -19 -20 -21 -21 -21 -22 -22 -22 -22 -22 -23 -22 -22 -22 -22 -22 -21 -21 -21 -21 -21 -21 -21 -21 -21
-12 -12 -12 -13 -13 -13 -13 -13 -13 -13 -13 -13 -14 -15 -16 -18 -20 -21 -21 -21 -21 -22 -22 -22 -22 -23 -23 -23 -23 -23 -23 -23 -22 -22 -22 -22 -22 -21 -22 -21 -21 -21 -21
-13 -13 -13 -13 -13 -13 -13 -13 -13 -13 -14 -15 -17 -19 -20 -21 -22 -22 -22 -22 -22 -22 -23 -23 -23 -23 -23 -24 -24 -24 -24 -24 -23 -23 -23 -23 -23 -23 -23 -22 -22 -22 -22
-13 -13 -13 -13 -13 -13 -14 -14 -14 -15 -16 -18 -20 -21 -22 -22 -22 -23 -23 -23 -23 -23 -23 -23 -24 -24 -24 -24 -25 -25 -25 -24 -24 -23 -23 -23 -23 -23 -23 -23 -23 -23 -23
-13 -13 -14 -14 -14 -14 -14 -15 -16 -17 -19 -21 -22 -22 -23 -23 -23 -23 -23 -23 -24 -24 -24 -24 -24 -25 -25 -25 -25 -25 -25 -25 -25 -24 -24 -24 -24 -24 -24 -24 -24 -23 -23
-14 -14 -14 -15 -15 -15 -16 -17 -18 -20 -21 -22 -23 -23 -23 -24 -24 -24 -24 -24 -24 -24 -25 -25 -25 -25 -26 -26 -26 -26 -26 -27 -27 -27 -27 -26 -25 -25 -25 -25 -24 -24 -24
-14 -15 -15 -15 -15 -16 -18 -19 -21 -22 -23 -23 -23 -24 -24 -24 -24 -24 -24 -24 -25 -25 -25 -26 -26 -26 -27 -27 -28 -28 -28 -29 -28 -28 -28 -27 -26 -26 -26 -25 -25 -25 -25
-15 -16 -16 -16 -17 -18 -20 -21 -23 -23 -24 -24 -24 -24 -24 -24 -24 -24 -25 -25 -26 -26 -27 -27 -28 -29 -29 -30 -30 -29 -29 -28 -28 -27 -28 -27 -27 -26 -26 -26 -26 -26 -25
-16 -16 -16 -17 -18 -20 -22 -23 -24 -24 -24 -24 -24 -24 -24 -24 -25 -25 -25 -26 -28 -28 -30 -31 -31 -31 -31 -30 -30 -29 -29 -28 -28 -28 -28 -28 -27 -27 -26 -26 -26 -25 -24
Height
5817 5818 5818 5818 5819 5819 5819 5816 5814 5813 5810 5807 5804 5801 5798 5797 5795 5792 5790 5787 5784 5782 5780 5777 5774 5770 5767 5764 5761 5756 5753 5749 5742 5737 5734 5729 5727 5724 5719 5713 5709 5705 5700
5812 5813 5814 5813 5813 5812 5811 5809 5807 5806 5803 5801 5798 5795 5792 5789 5787 5784 5783 5780 5777 5775 5772 5768 5766 5762 5758 5754 5749 5745 5740 5736 5730 5726 5719 5717 5717 5712 5704 5701 5697 5693 5689
5808 5808 5808 5807 5805 5804 5803 5801 5799 5797 5795 5793 5791 5789 5787 5783 5780 5777 5775 5772 5769 5766 5762 5758 5754 5750 5746 5741 5736 5731 5726 5721 5717 5712 5705 5700 5699 5696 5695 5688 5683 5679 5675
5803 5803 5802 5801 5800 5798 5796 5794 5791 5789 5787 5785 5783 5781 5779 5776 5773 5770 5766 5762 5758 5754 5750 5746 5742 5738 5732 5728 5723 5718 5713 5708 5704 5697 5693 5688 5681 5675 5672 5674 5669 5663 5660
5798 5797 5796 5795 5794 5792 5790 5788 5786 5783 5781 5778 5776 5773 5770 5767 5763 5760 5756 5752 5747 5742 5738 5733 5729 5724 5719 5714 5709 5703 5697 5692 5687 5681 5676 5670 5665 5660 5653 5647 5652 5646 5644
5792 5790 5789 5788 5787 5786 5784 5782 5779 5776 5773 5770 5767 5764 5761 5757 5754 5750 5746 5742 5737 5731 5726 5721 5716 5710 5705 5699 5693 5687 5682 5676 5670 5664 5659 5653 5645 5643 5636 5630 5628 5626 5629
5786 5784 5783 5782 5781 5780 5778 5776 5772 5768 5765 5762 5758 5755 5751 5746 5742 5737 5733 5729 5724 5719 5713 5707 5701 5694 5689 5683 5677 5672 5666 5660 5654 5648 5641 5636 5631 5626 5621 5615 5611 5605 5607
5778 5777 5777 5776 5774 5772 5770 5766 5762 5758 5755 5752 5748 5743 5738 5734 5730 5725 5720 5715 5709 5704 5698 5693 5686 5680 5673 5666 5661 5656 5650 5643 5636 5630 5624 5618 5615 5610 5606 5601 5595 5590 5589
5772 5771 5769 5767 5765 5764 5761 5757 5753 5749 5745 5740 5736 5732 5727 5722 5717 5712 5706 5700 5694 5688 5682 5676 5669 5662 5655 5647 5640 5634 5628 5622 5617 5612 5606 5600 5595 5590 5585 5580 5576 5572 5567
5765 5763 5761 5759 5756 5755 5752 5748 5743 5738 5735 5732 5727 5722 5717 5711 5705 5698 5692 5685 5678 5671 5664 5657 5649 5642 5635 5627 5619 5613 5606 5599 5594 5588 5582 5577 5573 5568 5564 5559 5554 5549 5543
5756 5754 5753 5751 5749 5745 5742 5738 5734 5731 5727 5720 5715 5710 5704 5697 5690 5684 5677 5669 5662 5655 5646 5638 5630 5622 5613 5605 5597 5590 5583 5578 5572 5566 5560 5556 5550 5546 5542 5537 5534 5530 5524
5750 5748 5746 5744 5740 5736 5732 5729 5725 5720 5714 5709 5703 5697 5690 5682 5675 5668 5660 5653 5644 5636 5627 5619 5610 5600 5591 5582 5573 5566 5559 5553 5548 5543 5538 5536 5529 5524 5519 5513 5510 5507 5504
5742 5740 5738 5734 5730 5727 5722 5717 5712 5707 5701 5694 5687 5680 5673 5665 5657 5649 5642 5633 5624 5615 5605 5595 5585 5576 5567 5557 5547 5540 5535 5532 5525 5520 5515 5511 5503 5499 5495 5491 5487 5484 5480
5734 5732 5729 5726 5721 5715 5709 5703 5697 5691 5684 5676 5669 5662 5655 5647 5639 5631 5623 5613 5602 5591 5580 5569 5559 5548 5539 5529 5522 5515 5512 5508 5502 5496 5491 5486 5481 5476 5472 5467 5464 5461 5458
5723 5720 5717 5712 5707 5702 5696 5689 5681 5673 5667 5660 5652 5645 5637 5629 5620 5609 5599 5588 5577 5566 5554 5544 5534 5523 5514 5506 5497 5492 5488 5483 5478 5473 5468 5463 5458 5451 5447 5442 5444 5440 5437
5713 5709 5705 5700 5694 5688 5680 5673 5665 5658 5651 5643 5635 5627 5618 5608 5596 5585 5574 5563 5552 5542 5532 5522 5512 5505 5497 5488 5480 5473 5469 5462 5456 5453 5448 5443 5438 5432 5427 5422 5419 5419 5415
5702 5697 5691 5686 5680 5673 5666 5658 5650 5643 5636 5626 5617 5606 5596 5585 5573 5561 5550 5538 5529 5519 5511 5502 5494 5487 5479 5470 5463 5456 5449 5443 5436 5430 5425 5422 5415 5408 5401 5400 5398 5398 5394
5689 5683 5677 5670 5664 5657 5649 5642 5633 5624 5615 5605 5594 5582 5572 5560 5548 5536 5526 5516 5508 5501 5492 5484 5476 5469 5460 5451 5443 5434 5427 5420 5411 5403 5397 5394 5391 5383 5373 5373 5375 5375 5372
5678 5672 5664 5657 5650 5642 5634 5625 5617 5607 5596 5584 5571 5559 5547 5536 5525 5516 5507 5499 5492 5484 5475 5467 5459 5450 5443 5432 5420 5411 5404 5396 5387 5377 5372 5364 5359 5353 5345 5343 5345 5348 5351
5664 5657 5649 5642 5633 5624 5616 5607 5598 5587 5574 5562 5549 5536 5525 5516 5508 5498 5490 5483 5473 5466 5457 5449 5438 5429 5420 5408 5396 5384 5375 5367 5358 5351 5344 5338 5330 5327 5322 5318 5318 5320 5324
5649 5641 5632 5623 5615 5607 5598 5588 5578 5566 5554 5540 5529 5519 5508 5499 5489 5482 5472 5464 5456 5446 5437 5428 5418 5408 5395 5383 5371 5361 5350 5341 5332 5326 5320 5314 5308 5304 5301 5298 5298 5299 5302
5631 5623 5615 5607 5599 5590 5580 5568 5556 5544 5533 5522 5511 5501 5492 5482 5473 5465 5455 5444 5433 5423 5413 5402 5393 5381 5370 5357 5346 5335 5326 5318 5308 5304 5299 5294 5289 5285 5284 5283 5283 5285 5286
5612 5605 5598 5589 5580 5570 5559 5546 5534 5524 5514 5504 5494 5485 5476 5466 5456 5445 5435 5424 5410 5397 5385 5373 5363 5354 5345 5333 5320 5311 5305 5299 5292 5287 5281 5276 5274 5272 5272 5272 5273 5276 5277
5596 5588 5579 5569 5559 5547 5534 5524 5515 5506 5497 5488 5478 5469 5460 5451 5440 5428 5413 5400 5385 5370 5357 5345 5335 5325 5317 5307 5298 5292 5289 5287 5281 5277 5271 5264 5264 5262 5262 5263 5266 5269 5271
5579 5570 5560 5549 5539 5527 5515 5505 5498 5489 5481 5472 5463 5454 5443 5432 5420 5407 5392 5379 5364 5344 5330 5320 5310 5301 5298 5291 5283 5279 5278 5274 5271 5267 5262 5257 5254 5254 5255 5258 5262 5264 5265
5564 5554 5543 5532 5521 5510 5499 5490 5482 5473 5465 5457 5446 5434 5422 5411 5398 5384 5376 5363 5343 5330 5315 5304 5296 5291 5282 5279 5273 5270 5267 5263 5259 5257 5253 5249 5247 5249 5252 5256 5258 5260 5261
Wind_Speed
21 20 19 19 20 23 26 29 30 30 29 28 28 27 26 23 25 27 28 30 32 33 34 35 36 39 41 43 43 45 47 47 51 55 56 58 57 57 57 59 59 59 59
19 19 20 22 24 27 31 32 32 29 27 25 25 26 28 28 30 31 32 34 36 39 41 43 44 46 48 50 51 53 54 54 55 58 62 63 61 58 62 63 62 61 60
18 19 22 25 29 33 35 34 31 28 27 27 27 28 29 31 33 36 39 42 44 46 49 51 53 54 55 56 56 57 59 61 60 61 65 67 67 66 60 62 62 62 61
20 23 27 31 33 35 34 31 30 30 30 31 31 33 35 37 39 42 45 47 49 50 51 52 53 54 57 58 60 61 62 63 64 66 66 67 70 73 73 64 63 65 64
25 28 31 33 32 32 29 29 30 31 32 34 37 39 41 42 43 44 46 47 50 52 53 55 57 59 62 63 65 67 70 71 72 73 73 74 73 71 74 75 66 64 61
28 28 26 25 25 27 28 30 32 33 35 37 39 40 41 43 45 46 49 51 54 57 59 62 64 65 67 69 70 71 70 70 71 71 70 68 70 66 64 66 66 64 57
24 23 23 24 25 28 29 30 32 34 35 37 39 41 43 46 49 52 55 57 58 59 60 60 61 63 64 65 65 66 66 67 68 69 70 68 65 61 62 66 67 67 63
23 23 23 25 26 27 29 32 34 37 39 41 43 46 50 53 54 54 54 56 57 59 61 64 66 68 70 72 72 73 73 74 75 75 75 76 76 73 66 65 70 69 68
24 23 24 26 28 30 33 35 38 41 44 47 48 48 48 50 53 56 60 62 64 66 68 71 72 73 74 75 76 77 78 78 78 79 80 81 80 77 76 74 71 71 74
23 25 28 30 32 34 37 39 42 45 44 44 47 49 52 55 58 61 63 64 67 70 73 75 77 79 80 81 82 83 83 84 84 84 85 83 81 80 78 77 77 76 74
26 28 30 34 37 39 41 41 41 43 47 51 54 57 60 62 64 67 69 72 75 78 80 83 84 86 87 87 87 88 88 87 86 85 84 84 83 82 79 78 78 78 77
28 32 35 36 35 37 40 44 47 50 53 57 60 63 66 68 71 73 76 79 83 86 88 90 92 92 91 90 89 90 89 88 86 85 84 82 80 80 80 80 78 77 75
35 37 36 35 38 42 46 50 53 56 60 63 66 68 71 74 77 81 84 87 90 93 95 96 97 97 96 95 92 90 88 86 85 84 83 82 80 78 76 75 75 74 73
34 34 35 40 44 49 52 56 60 64 66 68 70 74 77 81 83 86 89 93 97 98 98 96 95 94 93 92 92 91 89 86 83 81 79 78 78 78 74 72 70 70 68
36 39 43 46 50 55 59 62 64 67 70 73 77 80 82 84 88 92 96 99 101 100 100 98 94 90 86 81 80 79 78 74 72 71 70 70 69 69 70 71 69 69 67
39 43 48 52 57 60 62 65 68 72 75 79 81 83 86 90 94 97 98 97 95 95 96 93 82 77 74 73 72 72 70 70 70 70 70 70 70 71 72 71 71 68 67
46 51 56 60 64 67 69 71 74 76 77 80 85 89 92 95 96 94 91 90 89 83 76 74 72 71 71 70 70 71 72 73 74 75 75 73 73 74 76 74 73 71 72
53 59 62 64 66 69 71 74 76 78 82 87 91 93 95 94 89 86 83 76 72 71 68 66 66 66 69 72 76 78 80 82 83 84 83 82 80 81 84 81 79 75 75
57 60 62 64 67 69 72 74 77 82 86 90 93 93 88 83 79 74 69 68 66 65 67 68 70 73 75 79 81 83 84 84 85 85 83 80 79 78 79 80 79 77 74
59 61 63 66 69 71 73 77 81 85 89 91 87 81 76 73 69 67 66 66 68 69 72 74 78 82 84 85 86 88 89 88 86 82 77 73 71 69 68 68 66 66 65
62 65 68 71 72 74 78 82 85 88 87 80 75 71 69 68 68 67 69 71 73 77 80 81 84 87 89 89 89 89 87 86 82 77 71 65 62 60 58 58 56 55 53
66 68 71 72 74 78 83 86 88 83 76 71 69 68 68 69 70 72 74 77 81 84 86 89 91 92 91 90 89 87 83 78 73 67 60 55 51 48 45 44 41 40 41
70 73 73 74 79 83 85 86 81 74 69 67 67 69 69 71 74 77 80 84 89 94 95 95 95 93 89 85 81 75 69 60 55 51 50 47 42 38 34 31 30 31 33
74 74 76 80 83 85 84 78 71 66 65 67 69 69 71 74 78 83 89 92 96 97 97 95 91 84 75 68 64 59 50 42 42 40 42 44 36 29 24 22 23 24 23
74 76 80 82 84 82 76 71 67 66 66 68 70 72 76 81 86 89 92 93 92 90 85 78 73 66 56 50 47 43 37 33 32 31 32 32 31 23 18 16 16 16 17
74 79 82 83 80 73 67 65 65 66 69 70 74 79 84 88 90 91 87 79 71 67 63 59 56 50 47 43 42 38 31 30 31 29 27 25 24 17 12 10 11 15 16
Wind_Direction
264 262 257 257 260 268 276 284 289 289 285 284 287 290 290 287 283 283 286 290 291 293 295 296 296 296 296 297 296 294 293 291 290 289 289 289 289 289 289 287 288 289 290
264 259 257 266 278 285 287 285 283 282 283 282 281 284 288 291 292 293 297 297 299 300 301 301 301 300 299 298 297 295 292 291 288 288 288 289 286 288 287 289 289 289 289
257 260 269 277 282 284 284 285 286 286 285 287 289 291 293 296 298 301 302 302 302 302 302 302 301 300 298 296 294 292 291 290 287 285 286 287 288 287 287 287 288 288 289
262 268 273 277 279 281 284 286 288 289 293 295 296 298 301 301 301 301 301 301 301 300 299 298 296 294 293 292 292 291 290 289 290 289 290 290 292 292 291 289 289 290 290
268 272 274 275 278 279 281 286 289 293 296 299 301 301 300 300 301 301 300 299 298 297 295 294 293 292 291 291 291 291 290 291 291 292 292 292 290 290 291 291 289 287 288
271 272 274 275 277 280 283 289 295 298 298 297 298 298 298 298 297 296 294 292 292 292 292 292 292 291 290 290 290 290 290 290 290 290 290 290 290 291 289 289 289 289 287
264 266 271 275 279 285 291 293 292 291 293 293 294 293 292 292 292 292 293 294 295 295 296 296 296 296 294 293 292 292 292 292 291 290 290 289 288 285 285 287 286 286 284
265 269 280 287 288 287 288 289 289 289 289 290 291 291 292 295 298 300 300 299 298 297 297 296 296 295 294 293 292 291 290 290 290 289 289 289 289 288 284 283 284 281 282
273 288 287 284 282 283 283 285 287 288 290 291 294 297 298 299 299 299 300 300 300 300 299 299 298 297 296 294 293 292 290 288 287 286 286 286 286 286 286 285 284 283 281
285 280 279 279 280 284 288 289 289 290 294 298 297 297 299 299 300 300 300 301 300 300 300 299 299 298 298 296 295 293 291 290 289 288 287 285 285 285 284 283 284 284 282
276 281 284 285 288 289 290 291 293 298 301 300 300 301 301 302 302 302 302 302 301 300 299 298 298 297 296 295 294 292 291 289 286 285 285 286 287 287 286 285 285 284 284
281 280 281 285 289 294 297 298 300 301 299 300 302 302 302 302 301 300 299 299 299 298 298 298 295 293 292 290 288 287 286 285 284 284 286 287 287 286 286 285 285 285 285
281 284 290 294 294 295 298 300 300 300 301 301 301 302 302 301 301 301 301 299 299 299 297 296 294 293 291 288 286 285 284 284 286 287 287 288 287 286 287 287 287 286 285
291 293 293 292 296 299 300 301 303 303 303 303 303 303 302 301 300 300 298 297 297 296 297 297 295 293 291 290 290 291 290 289 289 289 288 287 287 289 287 286 285 283 282
297 299 300 301 301 302 303 304 305 303 302 303 302 302 301 300 299 298 298 297 298 298 297 296 295 296 298 298 296 295 294 294 293 292 290 290 289 287 285 282 280 279 280
300 300 301 302 303 303 303 303 302 302 302 302 302 301 300 300 300 299 299 299 298 295 295 296 299 298 297 296 295 294 294 292 291 290 289 288 286 284 284 282 283 282 281
304 305 305 303 302 302 301 300 301 302 301 302 302 302 303 302 301 300 298 296 296 298 298 299 300 299 299 298 297 297 296 295 293 291 289 288 286 284 282 280 280 281 281
305 304 303 301 301 300 301 302 302 304 305 305 305 304 304 303 299 296 297 298 299 300 302 301 300 300 299 298 297 296 295 294 293 292 291 288 285 284 282 280 279 279 280
303 302 301 302 302 302 303 303 305 306 306 306 306 305 303 299 297 297 299 300 301 301 300 299 299 300 300 300 300 299 297 297 296 295 294 291 287 284 282 280 277 277 277
301 301 302 302 302 304 305 306 307 308 307 307 305 301 298 297 297 299 300 300 300 301 301 301 300 301 302 302 301 300 300 300 299 298 297 294 291 287 284 281 279 277 276
303 303 304 306 306 307 307 307 308 308 309 304 300 299 299 299 300 300 299 299 301 301 302 302 301 300 300 301 300 300 300 300 300 299 297 294 291 287 284 281 280 279 277
306 307 308 307 307 308 308 309 310 310 306 302 302 302 302 301 302 303 304 305 305 304 303 302 301 301 301 300 300 300 301 301 300 299 298 295 292 287 283 279 277 276 277
309 309 308 307 309 310 310 312 311 308 304 304 305 305 305 306 306 307 307 307 306 305 304 303 302 301 301 301 301 300 300 300 299 300 298 296 293 287 281 273 268 269 272
307 307 308 310 311 312 312 311 309 307 307 307 306 307 306 307 307 308 308 308 307 306 305 304 303 303 304 303 300 299 299 299 297 297 297 297 295 285 270 259 258 265 282
307 308 310 312 313 313 311 310 309 308 309 309 309 309 310 310 309 309 308 308 308 308 309 309 308 308 308 305 302 302 304 300 296 296 299 295 289 281 259 245 257 273 284
309 310 311 312 312 311 310 310 310 311 311 311 312 312 312 310 308 308 309 312 314 316 316 316 316 315 315 313 310 310 309 304 305 310 308 294 285 264 230 241 271 292 291